Location: Newark
(46.3833°N, 12.2833°E)
Time: 05:41:23
(UTC+00:00)

First-Move - Visible Passes

Search period start: 19 October 2019 00:00
Search period end: 29 October 2019 00:00
Orbit: 577 x 669 km, 97.6° (Epoch: 17 October)

Date Brightness Start Highest point End Pass type
(mag) Time Alt. Az. Time Alt. Az. Time Alt. Az.
19 Oct ? 04:58:26 10° NNE 05:02:28 31° E 05:06:33 10° SSE visible
19 Oct ? 17:32:44 10° SSW 17:36:15 26° W 17:39:50 10° NW visible
20 Oct ? 17:51:53 10° SW 17:54:41 17° W 17:57:31 10° NW visible
21 Oct ? 18:11:52 10° WSW 18:13:10 11° W 18:14:28 10° WNW visible
22 Oct ? 04:18:35 10° ENE 04:20:43 13° E 04:22:52 10° ESE visible
22 Oct ? 16:50:28 10° S 16:54:37 71° WSW 16:58:56 10° NNW visible
23 Oct ? 04:35:51 10° NE 04:39:12 20° E 04:42:32 10° SE visible
23 Oct ? 17:08:55 10° S 17:12:56 45° W 17:17:06 10° NNW visible
24 Oct ? 04:53:37 10° NE 04:57:36 29° E 05:01:36 10° SSE visible
24 Oct ? 17:27:37 10° SSW 17:31:18 29° W 17:35:06 10° NNW visible
25 Oct ? 05:11:36 10° NNE 05:15:59 44° E 05:20:22 10° S visible
25 Oct ? 17:46:39 10° SW 17:49:43 19° W 17:52:52 10° NW visible
26 Oct ? 18:06:16 10° WSW 18:08:12 13° W 18:10:09 10° WNW visible
27 Oct ? 04:14:02 10° ENE 04:15:48 12° E 04:17:35 10° ESE visible
27 Oct ? 16:45:28 10° S 16:49:42 79° WSW 16:54:07 10° NNW visible
28 Oct ? 04:31:07 10° NE 04:34:18 18° E 04:37:28 10° SE visible
28 Oct ? 17:03:52 10° S 17:08:00 50° W 17:12:17 10° NNW visible
